Year,Month,Day,Hour,Minute,Value (Times are PST for temperature in C)
2013,08,21,00,00,13.70
2013,08,21,00,01,13.70
2013,08,21,00,02,13.70
2013,08,21,00,03,13.70
2013,08,21,00,04,13.70
2013,08,21,00,05,13.70
2013,08,21,00,06,13.70
2013,08,21,00,07,13.70
2013,08,21,00,08,13.70
2013,08,21,00,09,13.70
2013,08,21,00,10,13.70
2013,08,21,00,11,13.70
2013,08,21,00,12,13.70
2013,08,21,00,13,13.70
2013,08,21,00,14,13.70
2013,08,21,00,15,13.70
2013,08,21,00,16,13.80
2013,08,21,00,17,13.80
2013,08,21,00,18,13.80
2013,08,21,00,19,13.80
2013,08,21,00,20,13.80
2013,08,21,00,21,13.80
2013,08,21,00,22,13.80
2013,08,21,00,23,13.80
2013,08,21,00,24,13.80
2013,08,21,00,25,13.80
2013,08,21,00,26,13.80
2013,08,21,00,27,13.80
2013,08,21,00,28,13.80
2013,08,21,00,29,13.80
2013,08,21,00,30,13.80
2013,08,21,00,31,13.80
2013,08,21,00,32,13.80
2013,08,21,00,33,13.80
2013,08,21,00,34,13.80
2013,08,21,00,35,13.80
2013,08,21,00,36,13.80
2013,08,21,00,37,13.80
2013,08,21,00,38,13.80
2013,08,21,00,39,13.80
2013,08,21,00,40,13.80
2013,08,21,00,41,13.80
2013,08,21,00,42,13.80
2013,08,21,00,43,13.80
2013,08,21,00,44,13.80
2013,08,21,00,45,13.80
2013,08,21,00,46,13.80
2013,08,21,00,47,13.80
2013,08,21,00,48,13.80
2013,08,21,00,49,13.80
2013,08,21,00,50,13.80
2013,08,21,00,51,13.80
2013,08,21,00,52,13.80
2013,08,21,00,53,13.80
2013,08,21,00,54,13.80
2013,08,21,00,55,13.80
2013,08,21,00,56,13.80
2013,08,21,00,57,13.80
2013,08,21,00,58,13.90
2013,08,21,00,59,13.90
2013,08,21,01,00,13.90
2013,08,21,01,01,13.80
2013,08,21,01,02,13.90
2013,08,21,01,03,13.80
2013,08,21,01,04,13.80
2013,08,21,01,05,13.80
2013,08,21,01,06,13.80
2013,08,21,01,07,13.80
2013,08,21,01,08,13.80
2013,08,21,01,09,13.80
2013,08,21,01,10,13.80
2013,08,21,01,11,13.80
2013,08,21,01,12,13.80
2013,08,21,01,13,13.80
2013,08,21,01,14,13.80
2013,08,21,01,15,13.80
2013,08,21,01,16,13.80
2013,08,21,01,17,13.80
2013,08,21,01,18,13.80
2013,08,21,01,19,13.80
2013,08,21,01,20,13.80
2013,08,21,01,21,13.80
2013,08,21,01,22,13.80
2013,08,21,01,23,13.80
2013,08,21,01,24,13.80
2013,08,21,01,25,13.80
2013,08,21,01,26,13.80
2013,08,21,01,27,13.80
2013,08,21,01,28,13.80
2013,08,21,01,29,13.80
2013,08,21,01,30,13.80
2013,08,21,01,31,13.80
2013,08,21,01,32,13.80
2013,08,21,01,33,13.80
2013,08,21,01,34,13.80
2013,08,21,01,35,13.80
2013,08,21,01,36,13.80
2013,08,21,01,37,13.80
2013,08,21,01,38,13.70
2013,08,21,01,39,13.70
2013,08,21,01,40,13.70
2013,08,21,01,41,13.70
2013,08,21,01,42,13.70
2013,08,21,01,43,13.70
2013,08,21,01,44,13.70
2013,08,21,01,49,13.70
2013,08,21,01,50,13.70
2013,08,21,01,51,13.70
2013,08,21,01,52,13.70
2013,08,21,01,53,13.70
2013,08,21,01,54,13.70
2013,08,21,01,55,13.70
2013,08,21,01,56,13.70
2013,08,21,01,57,13.70
2013,08,21,01,58,13.70
2013,08,21,01,59,13.70
2013,08,21,02,00,13.70
2013,08,21,02,01,13.70
2013,08,21,02,02,13.70
2013,08,21,02,03,13.70
2013,08,21,02,04,13.70
2013,08,21,02,05,13.60
2013,08,21,02,06,13.60
2013,08,21,02,07,13.60
2013,08,21,02,08,13.60
2013,08,21,02,09,13.60
2013,08,21,02,10,13.60
2013,08,21,02,11,13.60
2013,08,21,02,12,13.60
2013,08,21,02,13,13.60
2013,08,21,02,14,13.60
2013,08,21,02,15,13.60
2013,08,21,02,16,13.60
2013,08,21,02,17,13.60
2013,08,21,02,18,13.60
2013,08,21,02,19,13.60
2013,08,21,02,20,13.60
2013,08,21,02,21,13.60
2013,08,21,02,22,13.60
2013,08,21,02,23,13.60
2013,08,21,02,24,13.50
2013,08,21,02,25,13.50
2013,08,21,02,26,13.50
2013,08,21,02,27,13.50
2013,08,21,02,28,13.50
2013,08,21,02,29,13.50
2013,08,21,02,30,13.50
2013,08,21,02,31,13.50
2013,08,21,02,32,13.50
2013,08,21,02,33,13.50
2013,08,21,02,34,13.50
2013,08,21,02,35,13.50
2013,08,21,02,36,13.50
2013,08,21,02,37,13.50
2013,08,21,02,38,13.50
2013,08,21,02,39,13.50
2013,08,21,02,40,13.40
2013,08,21,02,41,13.40
2013,08,21,02,42,13.40
2013,08,21,02,43,13.40
2013,08,21,02,44,13.40
2013,08,21,02,45,13.40
2013,08,21,02,46,13.40
2013,08,21,02,47,13.40
2013,08,21,02,48,13.40
2013,08,21,02,49,13.40
2013,08,21,02,50,13.40
2013,08,21,02,51,13.40
2013,08,21,02,52,13.40
2013,08,21,02,53,13.40
2013,08,21,02,54,13.40
2013,08,21,02,55,13.40
2013,08,21,02,56,13.40
2013,08,21,02,57,13.40
2013,08,21,02,58,13.40
2013,08,21,02,59,13.40
2013,08,21,03,00,13.40
2013,08,21,03,01,13.40
2013,08,21,03,02,13.40
2013,08,21,03,03,13.40
2013,08,21,03,04,13.40
2013,08,21,03,05,13.40
2013,08,21,03,06,13.40
2013,08,21,03,07,13.40
2013,08,21,03,08,13.40
2013,08,21,03,09,13.40
2013,08,21,03,10,13.40
2013,08,21,03,11,13.40
2013,08,21,03,12,13.40
2013,08,21,03,13,13.40
2013,08,21,03,14,13.40
2013,08,21,03,15,13.40
2013,08,21,03,16,13.40
2013,08,21,03,17,13.40
2013,08,21,03,18,13.40
2013,08,21,03,19,13.50
2013,08,21,03,20,13.40
2013,08,21,03,21,13.40
2013,08,21,03,22,13.50
2013,08,21,03,23,13.40
2013,08,21,03,24,13.40
2013,08,21,03,25,13.40
2013,08,21,03,26,13.40
2013,08,21,03,27,13.40
2013,08,21,03,28,13.40
2013,08,21,03,29,13.40
2013,08,21,03,30,13.40
2013,08,21,03,31,13.40
2013,08,21,03,32,13.40
2013,08,21,03,33,13.40
2013,08,21,03,34,13.40
2013,08,21,03,35,13.40
2013,08,21,03,36,13.50
2013,08,21,03,37,13.40
2013,08,21,03,38,13.40
2013,08,21,03,39,13.40
2013,08,21,03,40,13.40
2013,08,21,03,41,13.40
2013,08,21,03,42,13.40
2013,08,21,03,43,13.40
2013,08,21,03,44,13.40
2013,08,21,03,45,13.40
2013,08,21,03,46,13.40
2013,08,21,03,47,13.40
2013,08,21,03,48,13.40
2013,08,21,03,49,13.40
2013,08,21,03,50,13.50
2013,08,21,03,51,13.50
2013,08,21,03,52,13.50
2013,08,21,03,53,13.50
2013,08,21,03,54,13.60
2013,08,21,03,55,13.60
2013,08,21,03,56,13.60
2013,08,21,03,57,13.60
2013,08,21,03,58,13.60
2013,08,21,03,59,13.60
2013,08,21,04,00,13.60
2013,08,21,04,01,13.60
2013,08,21,04,02,13.60
2013,08,21,04,03,13.60
2013,08,21,04,04,13.60
2013,08,21,04,05,13.60
2013,08,21,04,06,13.60
2013,08,21,04,07,13.60
2013,08,21,04,08,13.60
2013,08,21,04,09,13.60
2013,08,21,04,10,13.60
2013,08,21,04,11,13.60
2013,08,21,04,12,13.60
2013,08,21,04,13,13.70
2013,08,21,04,14,13.70
2013,08,21,04,15,13.70
2013,08,21,04,16,13.70
2013,08,21,04,17,13.70
2013,08,21,04,18,13.70
2013,08,21,04,19,13.80
2013,08,21,04,20,13.80
2013,08,21,04,21,13.80
2013,08,21,04,22,13.80
2013,08,21,04,23,13.80
2013,08,21,04,24,13.80
2013,08,21,04,25,13.80
2013,08,21,04,26,13.90
2013,08,21,04,27,13.90
2013,08,21,04,28,13.90
2013,08,21,04,29,13.90
2013,08,21,04,30,13.90
2013,08,21,04,31,13.90
2013,08,21,04,32,13.90
2013,08,21,04,33,14.00
2013,08,21,04,34,14.00
2013,08,21,04,35,14.00
2013,08,21,04,36,14.00
2013,08,21,04,37,14.00
2013,08,21,04,38,14.00
2013,08,21,04,39,14.00
2013,08,21,04,40,14.00
2013,08,21,04,41,14.00
2013,08,21,04,42,14.00
2013,08,21,04,43,14.00
2013,08,21,04,44,14.00
2013,08,21,04,45,14.00
2013,08,21,04,46,14.00
2013,08,21,04,47,14.00
2013,08,21,04,48,14.00
2013,08,21,04,49,13.90
2013,08,21,04,50,13.90
2013,08,21,04,51,13.90
2013,08,21,04,52,13.90
2013,08,21,04,53,13.90
2013,08,21,04,54,13.90
2013,08,21,04,55,13.90
2013,08,21,04,56,13.90
2013,08,21,04,57,13.80
2013,08,21,04,58,13.80
2013,08,21,04,59,13.80
2013,08,21,05,00,13.80
2013,08,21,05,01,13.80
2013,08,21,05,02,13.80
2013,08,21,05,03,13.80
2013,08,21,05,04,13.80
2013,08,21,05,05,13.80
2013,08,21,05,06,13.70
2013,08,21,05,07,13.70
2013,08,21,05,08,13.70
2013,08,21,05,09,13.70
2013,08,21,05,10,13.70
2013,08,21,05,11,13.70
2013,08,21,05,12,13.70
2013,08,21,05,13,13.70
2013,08,21,05,14,13.70
2013,08,21,05,15,13.70
2013,08,21,05,16,13.60
2013,08,21,05,17,13.60
2013,08,21,05,18,13.60
2013,08,21,05,19,13.60
2013,08,21,05,20,13.60
2013,08,21,05,21,13.60
2013,08,21,05,22,13.60
2013,08,21,05,23,13.60
2013,08,21,05,24,13.50
2013,08,21,05,25,13.50
2013,08,21,05,26,13.50
2013,08,21,05,27,13.50
2013,08,21,05,28,13.50
2013,08,21,05,29,13.50
2013,08,21,05,30,13.50
2013,08,21,05,31,13.40
2013,08,21,05,32,13.40
2013,08,21,05,33,13.40
2013,08,21,05,34,13.40
2013,08,21,05,35,13.40
2013,08,21,05,36,13.40
2013,08,21,05,37,13.40
2013,08,21,05,38,13.40
2013,08,21,05,39,13.40
2013,08,21,05,40,13.40
2013,08,21,05,41,13.40
2013,08,21,05,42,13.30
2013,08,21,05,43,13.30
2013,08,21,05,44,13.30
2013,08,21,05,45,13.30
2013,08,21,05,46,13.30
2013,08,21,05,47,13.30
2013,08,21,05,48,13.30
2013,08,21,05,49,13.30
2013,08,21,05,50,13.30
2013,08,21,05,51,13.30
2013,08,21,05,52,13.30
2013,08,21,05,53,13.30
2013,08,21,05,54,13.30
2013,08,21,05,55,13.30
2013,08,21,05,56,13.30
2013,08,21,05,57,13.30
2013,08,21,05,58,13.20
2013,08,21,05,59,13.20
2013,08,21,06,00,13.20
2013,08,21,06,01,13.20
2013,08,21,06,02,13.20
2013,08,21,06,03,13.20
2013,08,21,06,04,13.20
2013,08,21,06,05,13.20
2013,08,21,06,06,13.20
2013,08,21,06,07,13.20
2013,08,21,06,08,13.20
2013,08,21,06,09,13.20
2013,08,21,06,10,13.20
2013,08,21,06,11,13.20
2013,08,21,06,12,13.20
2013,08,21,06,13,13.20
2013,08,21,06,14,13.20
2013,08,21,06,15,13.20
2013,08,21,06,16,13.20
2013,08,21,06,17,13.20
2013,08,21,06,18,13.20
2013,08,21,06,19,13.20
2013,08,21,06,20,13.20
2013,08,21,06,21,13.20
2013,08,21,06,22,13.20
2013,08,21,06,23,13.20
2013,08,21,06,24,13.20
2013,08,21,06,25,13.20
2013,08,21,06,26,13.20
2013,08,21,06,27,13.20
2013,08,21,06,28,13.20
2013,08,21,06,29,13.20
2013,08,21,06,30,13.20
2013,08,21,06,31,13.20
2013,08,21,06,32,13.20
2013,08,21,06,33,13.20
2013,08,21,06,34,13.20
2013,08,21,06,35,13.20
2013,08,21,06,36,13.20
2013,08,21,06,37,13.20
2013,08,21,06,38,13.20
2013,08,21,06,39,13.20
2013,08,21,06,40,13.20
2013,08,21,06,41,13.20
2013,08,21,06,42,13.30
2013,08,21,06,43,13.30
2013,08,21,06,44,13.30
2013,08,21,06,45,13.30
2013,08,21,06,46,13.30
2013,08,21,06,47,13.30
2013,08,21,06,48,13.30
2013,08,21,06,49,13.30
2013,08,21,06,50,13.30
2013,08,21,06,51,13.30
2013,08,21,06,52,13.30
2013,08,21,06,53,13.30
2013,08,21,06,54,13.30
2013,08,21,06,55,13.30
2013,08,21,06,56,13.30
2013,08,21,06,57,13.30
2013,08,21,06,58,13.30
2013,08,21,06,59,13.30
2013,08,21,07,00,13.30
2013,08,21,07,01,13.30
2013,08,21,07,02,13.30
2013,08,21,07,03,13.30
2013,08,21,07,04,13.30
2013,08,21,07,05,13.30
2013,08,21,07,06,13.40
2013,08,21,07,07,13.40
2013,08,21,07,08,13.40
2013,08,21,07,09,13.40
2013,08,21,07,10,13.40
2013,08,21,07,11,13.40
2013,08,21,07,12,13.50
2013,08,21,07,13,13.50
2013,08,21,07,14,13.50
2013,08,21,07,15,13.50
2013,08,21,07,16,13.50
2013,08,21,07,17,13.50
2013,08,21,07,18,13.60
2013,08,21,07,19,13.60
2013,08,21,07,20,13.70
2013,08,21,07,21,13.70
2013,08,21,07,22,13.70
2013,08,21,07,23,13.70
2013,08,21,07,24,13.80
2013,08,21,07,25,13.80
2013,08,21,07,26,13.80
2013,08,21,07,27,13.80
2013,08,21,07,28,13.80
2013,08,21,07,29,13.80
2013,08,21,07,30,13.80
2013,08,21,07,31,13.80
2013,08,21,07,32,13.80
2013,08,21,07,33,13.80
2013,08,21,07,34,13.80
2013,08,21,07,35,13.80
2013,08,21,07,36,13.80
2013,08,21,07,37,13.80
2013,08,21,07,38,13.80
2013,08,21,07,39,13.80
2013,08,21,07,40,13.80
2013,08,21,07,41,13.80
2013,08,21,07,42,13.80
2013,08,21,07,43,13.80
2013,08,21,07,44,13.80
2013,08,21,07,45,13.80
2013,08,21,07,46,13.90
2013,08,21,07,47,13.90
2013,08,21,07,48,13.90
2013,08,21,07,49,13.90
2013,08,21,07,50,13.90
2013,08,21,07,51,13.90
2013,08,21,07,52,13.90
2013,08,21,07,53,13.90
2013,08,21,07,54,13.90
2013,08,21,07,55,14.00
2013,08,21,07,56,14.00
2013,08,21,07,57,14.10
2013,08,21,07,58,14.10
2013,08,21,07,59,14.10
2013,08,21,08,00,14.10
2013,08,21,08,01,14.10
2013,08,21,08,02,14.10
2013,08,21,08,03,14.20
2013,08,21,08,04,14.20
2013,08,21,08,05,14.20
2013,08,21,08,06,14.30
2013,08,21,08,07,14.30
2013,08,21,08,08,14.30
2013,08,21,08,09,14.40
2013,08,21,08,10,14.40
2013,08,21,08,11,14.50
2013,08,21,08,12,14.60
2013,08,21,08,13,14.60
2013,08,21,08,14,14.70
2013,08,21,08,15,14.70
2013,08,21,08,16,14.80
2013,08,21,08,17,14.80
2013,08,21,08,18,14.90
2013,08,21,08,19,15.00
2013,08,21,08,20,15.00
2013,08,21,08,21,15.00
2013,08,21,08,22,15.00
2013,08,21,08,23,15.00
2013,08,21,08,24,15.00
2013,08,21,08,25,15.00
2013,08,21,08,26,15.00
2013,08,21,08,27,15.20
2013,08,21,08,28,15.20
2013,08,21,08,29,15.30
2013,08,21,08,30,15.40
2013,08,21,08,31,15.40
2013,08,21,08,32,15.50
2013,08,21,08,33,15.60
2013,08,21,08,34,15.60
2013,08,21,08,35,15.70
2013,08,21,08,36,15.70
2013,08,21,08,37,15.70
2013,08,21,08,38,15.80
2013,08,21,08,39,15.80
2013,08,21,08,40,15.80
2013,08,21,08,41,15.80
2013,08,21,08,42,15.90
2013,08,21,08,43,15.90
2013,08,21,08,44,16.00
2013,08,21,08,45,16.00
2013,08,21,08,46,16.10
2013,08,21,08,47,16.10
2013,08,21,08,48,16.10
2013,08,21,08,49,16.20
2013,08,21,08,50,16.20
2013,08,21,08,51,16.20
2013,08,21,08,52,16.30
2013,08,21,08,53,16.30
2013,08,21,08,54,16.30
2013,08,21,08,55,16.30
2013,08,21,08,56,16.30
2013,08,21,08,57,16.30
2013,08,21,08,58,16.30
2013,08,21,08,59,16.30
2013,08,21,09,00,16.30
2013,08,21,09,01,16.40
2013,08,21,09,02,16.40
2013,08,21,09,03,16.40
2013,08,21,09,04,16.40
2013,08,21,09,05,16.40
2013,08,21,09,06,16.40
2013,08,21,09,07,16.50
2013,08,21,09,08,16.50
2013,08,21,09,09,16.50
2013,08,21,09,10,16.50
2013,08,21,09,11,16.60
2013,08,21,09,12,16.60
2013,08,21,09,13,16.60
2013,08,21,09,14,16.60
2013,08,21,09,15,16.60
2013,08,21,09,16,16.60
2013,08,21,09,17,16.70
2013,08,21,09,18,16.70
2013,08,21,09,19,16.70
2013,08,21,09,20,16.70
2013,08,21,09,21,16.70
2013,08,21,09,22,16.70
2013,08,21,09,23,16.70
2013,08,21,09,24,16.70
2013,08,21,09,25,16.80
2013,08,21,09,26,16.80
2013,08,21,09,27,16.80
2013,08,21,09,28,16.80
2013,08,21,09,29,16.80
2013,08,21,09,30,16.80
2013,08,21,09,31,16.80
2013,08,21,09,32,16.80
2013,08,21,09,33,16.80
2013,08,21,09,34,16.80
2013,08,21,09,35,16.90
2013,08,21,09,36,16.90
2013,08,21,09,37,16.90
2013,08,21,09,38,16.90
2013,08,21,09,39,17.00
2013,08,21,09,40,17.00
2013,08,21,09,41,17.10
2013,08,21,09,42,17.20
2013,08,21,09,43,17.20
2013,08,21,09,44,17.30
2013,08,21,09,45,17.40
2013,08,21,09,46,17.40
2013,08,21,09,47,17.50
2013,08,21,09,48,17.60
2013,08,21,09,49,17.60
2013,08,21,09,50,17.70
2013,08,21,09,51,17.80
2013,08,21,09,52,17.90
2013,08,21,09,53,18.00
2013,08,21,09,54,18.10
2013,08,21,09,55,18.10
2013,08,21,09,56,18.20
2013,08,21,09,57,18.20
2013,08,21,09,58,18.30
2013,08,21,09,59,18.40
2013,08,21,10,00,18.40
2013,08,21,10,01,18.50
2013,08,21,10,02,18.50
2013,08,21,10,03,18.60
2013,08,21,10,04,18.60
2013,08,21,10,05,18.70
2013,08,21,10,06,18.70
2013,08,21,10,07,18.80
2013,08,21,10,08,18.90
2013,08,21,10,09,18.90
2013,08,21,10,10,18.90
2013,08,21,10,11,19.00
2013,08,21,10,12,19.10
2013,08,21,10,13,19.10
2013,08,21,10,14,19.20
2013,08,21,10,15,19.20
2013,08,21,10,16,19.20
2013,08,21,10,17,19.20
2013,08,21,10,18,19.30
2013,08,21,10,19,19.30
2013,08,21,10,20,19.30
2013,08,21,10,21,19.30
2013,08,21,10,22,19.40
2013,08,21,10,23,19.40
2013,08,21,10,24,19.40
2013,08,21,10,25,19.40
2013,08,21,10,26,19.50
2013,08,21,10,27,19.50
2013,08,21,10,28,19.60
2013,08,21,10,29,19.60
2013,08,21,10,30,19.60
2013,08,21,10,31,19.60
2013,08,21,10,32,19.60
2013,08,21,10,33,19.60
2013,08,21,10,34,19.60
2013,08,21,10,35,19.60
2013,08,21,10,36,19.60
2013,08,21,10,37,19.60
2013,08,21,10,38,19.60
2013,08,21,10,39,19.60
2013,08,21,10,40,19.60
2013,08,21,10,41,19.70
2013,08,21,10,42,19.80
2013,08,21,10,43,19.80
2013,08,21,10,44,19.80
2013,08,21,10,45,19.90
2013,08,21,10,46,19.90
2013,08,21,10,47,19.90
2013,08,21,10,48,20.00
2013,08,21,10,49,20.00
2013,08,21,10,50,20.10
2013,08,21,10,51,20.20
2013,08,21,10,52,20.30
2013,08,21,10,53,20.40
2013,08,21,10,54,20.50
2013,08,21,10,55,20.50
2013,08,21,10,56,20.50
2013,08,21,10,57,20.40
2013,08,21,10,58,20.40
2013,08,21,10,59,20.40
2013,08,21,11,00,20.40
2013,08,21,11,01,20.40
2013,08,21,11,02,20.40
2013,08,21,11,03,20.40
2013,08,21,11,04,20.50
2013,08,21,11,05,20.50
2013,08,21,11,06,20.60
2013,08,21,11,07,20.60
2013,08,21,11,08,20.60
2013,08,21,11,09,20.60
2013,08,21,11,10,20.60
2013,08,21,11,11,20.50
2013,08,21,11,12,20.60
2013,08,21,11,13,20.60
2013,08,21,11,14,20.70
2013,08,21,11,15,20.70
2013,08,21,11,16,20.70
2013,08,21,11,17,20.70
2013,08,21,11,18,20.70
2013,08,21,11,19,20.70
2013,08,21,11,20,20.70
2013,08,21,11,21,20.70
2013,08,21,11,22,20.70
2013,08,21,11,23,20.70
2013,08,21,11,24,20.70
2013,08,21,11,25,20.70
2013,08,21,11,26,20.70
2013,08,21,11,27,20.70
2013,08,21,11,28,20.70
2013,08,21,11,29,20.70
2013,08,21,11,30,20.70
2013,08,21,11,31,20.60
2013,08,21,11,32,20.60
2013,08,21,11,33,20.60
2013,08,21,11,34,20.60
2013,08,21,11,35,20.60
2013,08,21,11,36,20.70
2013,08,21,11,37,20.70
2013,08,21,11,38,20.80
2013,08,21,11,39,20.80
2013,08,21,11,40,20.90
2013,08,21,11,41,20.90
2013,08,21,11,42,21.00
2013,08,21,11,43,21.10
2013,08,21,11,44,21.10
2013,08,21,11,45,21.20
2013,08,21,11,46,21.20
2013,08,21,11,47,21.30
2013,08,21,11,48,21.30
2013,08,21,11,49,21.30
2013,08,21,11,50,21.30
2013,08,21,11,51,21.30
2013,08,21,11,52,21.30
2013,08,21,11,53,21.30
2013,08,21,11,54,21.40
2013,08,21,11,55,21.40
2013,08,21,11,56,21.40
2013,08,21,11,57,21.50
2013,08,21,11,58,21.50
2013,08,21,11,59,21.60
2013,08,21,12,00,21.60
2013,08,21,12,01,21.70
2013,08,21,12,02,21.70
2013,08,21,12,03,21.70
2013,08,21,12,04,21.70
2013,08,21,12,05,21.80
2013,08,21,12,06,21.80
2013,08,21,12,07,21.90
2013,08,21,12,08,22.00
2013,08,21,12,09,22.00
2013,08,21,12,10,22.10
2013,08,21,12,11,22.20
2013,08,21,12,12,22.30
2013,08,21,12,13,22.30
2013,08,21,12,14,22.30
2013,08,21,12,15,22.20
2013,08,21,12,16,22.10
2013,08,21,12,17,22.10
2013,08,21,12,18,22.00
2013,08,21,12,19,22.00
2013,08,21,12,20,21.90
2013,08,21,12,21,21.90
2013,08,21,12,22,22.00
2013,08,21,12,23,21.90
2013,08,21,12,24,21.90
2013,08,21,12,25,21.80
2013,08,21,12,26,21.90
2013,08,21,12,27,21.90
2013,08,21,12,28,22.00
2013,08,21,12,29,22.00
2013,08,21,12,30,22.10
2013,08,21,12,31,22.10
2013,08,21,12,32,22.20
2013,08,21,12,33,22.20
2013,08,21,12,34,22.30
2013,08,21,12,35,22.20
2013,08,21,12,36,22.00
2013,08,21,12,37,21.90
2013,08,21,12,38,21.80
2013,08,21,12,39,21.80
2013,08,21,12,40,21.80
2013,08,21,12,41,21.80
2013,08,21,12,42,21.90
2013,08,21,12,43,22.00
2013,08,21,12,44,22.10
2013,08,21,12,45,22.20
2013,08,21,12,46,22.30
2013,08,21,12,47,22.20
2013,08,21,12,48,22.10
2013,08,21,12,49,22.10
2013,08,21,12,50,22.10
2013,08,21,12,51,22.00
2013,08,21,12,52,22.00
2013,08,21,12,53,22.10
2013,08,21,12,54,22.10
2013,08,21,12,55,22.10
2013,08,21,12,56,22.10
2013,08,21,12,57,22.00
2013,08,21,12,58,22.00
2013,08,21,12,59,21.90
2013,08,21,13,00,21.90
2013,08,21,13,01,21.90
2013,08,21,13,02,21.90
2013,08,21,13,03,21.90
2013,08,21,13,04,21.90
2013,08,21,13,05,21.90
2013,08,21,13,06,22.00
2013,08,21,13,07,22.10
2013,08,21,13,08,22.10
2013,08,21,13,09,22.10
2013,08,21,13,10,22.10
2013,08,21,13,11,22.10
2013,08,21,13,12,22.10
2013,08,21,13,13,22.20
2013,08,21,13,14,22.10
2013,08,21,13,15,22.10
2013,08,21,13,16,22.20
2013,08,21,13,17,22.20
2013,08,21,13,18,22.30
2013,08,21,13,19,22.30
2013,08,21,13,20,22.40
2013,08,21,13,21,22.40
2013,08,21,13,22,22.50
2013,08,21,13,23,22.50
2013,08,21,13,24,22.60
2013,08,21,13,25,22.60
2013,08,21,13,26,22.60
2013,08,21,13,27,22.60
2013,08,21,13,28,22.60
2013,08,21,13,29,22.70
2013,08,21,13,30,22.70
2013,08,21,13,31,22.70
2013,08,21,13,32,22.70
2013,08,21,13,33,22.70
2013,08,21,13,34,22.80
2013,08,21,13,35,22.80
2013,08,21,13,36,22.80
2013,08,21,13,37,22.80
2013,08,21,13,38,22.80
2013,08,21,13,39,22.70
2013,08,21,13,40,22.50
2013,08,21,13,41,22.40
2013,08,21,13,42,22.30
2013,08,21,13,43,22.20
2013,08,21,13,44,22.20
2013,08,21,13,45,22.10
2013,08,21,13,46,22.00
2013,08,21,13,47,21.90
2013,08,21,13,48,21.90
2013,08,21,13,49,21.90
2013,08,21,13,50,21.90
2013,08,21,13,51,22.00
2013,08,21,13,52,22.10
2013,08,21,13,53,22.10
2013,08,21,13,54,22.10
2013,08,21,13,55,22.10
2013,08,21,13,56,22.00
2013,08,21,13,57,21.90
2013,08,21,13,58,21.80
2013,08,21,13,59,21.80
2013,08,21,14,00,21.90
2013,08,21,14,01,21.90
2013,08,21,14,02,21.90
2013,08,21,14,03,22.00
2013,08,21,14,04,22.00
2013,08,21,14,05,22.10
2013,08,21,14,06,22.10
2013,08,21,14,07,22.20
2013,08,21,14,08,22.30
2013,08,21,14,09,22.40
2013,08,21,14,10,22.40
2013,08,21,14,11,22.40
2013,08,21,14,12,22.40
2013,08,21,14,13,22.40
2013,08,21,14,14,22.40
2013,08,21,14,15,22.30
2013,08,21,14,16,22.30
2013,08,21,14,17,22.30
2013,08,21,14,18,22.20
2013,08,21,14,19,22.20
2013,08,21,14,20,22.20
2013,08,21,14,21,22.20
2013,08,21,14,22,22.20
2013,08,21,14,23,22.20
2013,08,21,14,24,22.20
2013,08,21,14,25,22.20
2013,08,21,14,26,22.20
2013,08,21,14,27,22.20
2013,08,21,14,28,22.20
2013,08,21,14,29,22.20
2013,08,21,14,30,22.30
2013,08,21,14,31,22.40
2013,08,21,14,32,22.50
2013,08,21,14,33,22.70
2013,08,21,14,34,22.80
2013,08,21,14,35,23.00
2013,08,21,14,36,23.10
2013,08,21,14,37,23.30
2013,08,21,14,38,23.40
2013,08,21,14,39,23.50
2013,08,21,14,40,23.60
2013,08,21,14,41,23.70
2013,08,21,14,42,23.80
2013,08,21,14,43,23.80
2013,08,21,14,44,23.80
2013,08,21,14,45,23.90
2013,08,21,14,46,24.00
2013,08,21,14,47,24.00
2013,08,21,14,48,24.10
2013,08,21,14,49,24.10
2013,08,21,14,50,24.10
2013,08,21,14,51,24.20
2013,08,21,14,52,24.40
2013,08,21,14,53,24.50
2013,08,21,14,54,24.60
2013,08,21,14,55,24.70
2013,08,21,14,56,24.80
2013,08,21,14,57,24.90
2013,08,21,14,58,25.00
2013,08,21,14,59,25.00
2013,08,21,15,00,25.10
2013,08,21,15,01,25.10
2013,08,21,15,02,25.20
2013,08,21,15,03,25.20
2013,08,21,15,04,25.20
2013,08,21,15,05,25.20
2013,08,21,15,06,25.20
2013,08,21,15,07,25.20
2013,08,21,15,08,25.20
2013,08,21,15,09,25.20
2013,08,21,15,10,25.20
2013,08,21,15,11,25.30
2013,08,21,15,12,25.30
2013,08,21,15,13,25.30
2013,08,21,15,14,25.40
2013,08,21,15,15,25.40
2013,08,21,15,16,25.40
2013,08,21,15,17,25.50
2013,08,21,15,18,25.50
2013,08,21,15,19,25.60
2013,08,21,15,20,25.70
2013,08,21,15,21,25.70
2013,08,21,15,22,25.70
2013,08,21,15,23,25.70
2013,08,21,15,24,25.70
2013,08,21,15,25,25.70
2013,08,21,15,26,25.70
2013,08,21,15,27,25.70
2013,08,21,15,28,25.60
2013,08,21,15,29,25.60
2013,08,21,15,30,25.60
2013,08,21,15,31,25.60
2013,08,21,15,32,25.60
2013,08,21,15,33,25.60
2013,08,21,15,34,25.60
2013,08,21,15,35,25.60
2013,08,21,15,36,25.70
2013,08,21,15,37,25.70
2013,08,21,15,38,25.60
2013,08,21,15,39,25.60
2013,08,21,15,40,25.60
2013,08,21,15,41,25.60
2013,08,21,15,42,25.50
2013,08,21,15,43,25.50
2013,08,21,15,44,25.30
2013,08,21,15,45,25.20
2013,08,21,15,46,25.20
2013,08,21,15,47,25.10
2013,08,21,15,48,25.10
2013,08,21,15,49,25.10
2013,08,21,15,50,25.10
2013,08,21,15,51,25.10
2013,08,21,15,52,25.10
2013,08,21,15,53,25.20
2013,08,21,15,54,25.20
2013,08,21,15,55,25.30
2013,08,21,15,56,25.40
2013,08,21,15,57,25.40
2013,08,21,15,58,25.50
2013,08,21,15,59,25.50
2013,08,21,16,00,25.40
2013,08,21,16,01,25.30
2013,08,21,16,02,25.30
2013,08,21,16,03,25.30
2013,08,21,16,04,25.30
2013,08,21,16,05,25.30
2013,08,21,16,06,25.30
2013,08,21,16,07,25.40
2013,08,21,16,08,25.40
2013,08,21,16,09,25.40
2013,08,21,16,10,25.40
2013,08,21,16,11,25.40
2013,08,21,16,12,25.40
2013,08,21,16,13,25.30
2013,08,21,16,14,25.20
2013,08,21,16,15,25.10
2013,08,21,16,16,25.10
2013,08,21,16,17,25.00
2013,08,21,16,18,25.00
2013,08,21,16,19,25.00
2013,08,21,16,20,25.00
2013,08,21,16,21,25.00
2013,08,21,16,22,25.10
2013,08,21,16,23,25.10
2013,08,21,16,24,25.10
2013,08,21,16,25,25.20
2013,08,21,16,26,25.20
2013,08,21,16,27,25.10
2013,08,21,16,28,25.10
2013,08,21,16,29,25.00
2013,08,21,16,30,24.90
2013,08,21,16,31,24.80
2013,08,21,16,32,24.70
2013,08,21,16,33,24.50
2013,08,21,16,34,24.30
2013,08,21,16,35,24.10
2013,08,21,16,36,24.10
2013,08,21,16,37,24.10
2013,08,21,16,38,24.10
2013,08,21,16,39,24.10
2013,08,21,16,40,24.10
2013,08,21,16,41,24.10
2013,08,21,16,42,24.10
2013,08,21,16,43,24.10
2013,08,21,16,44,24.10
2013,08,21,16,45,24.10
2013,08,21,16,46,24.20
2013,08,21,16,47,24.30
2013,08,21,16,48,24.30
2013,08,21,16,49,24.40
2013,08,21,16,50,24.40
2013,08,21,16,51,24.40
2013,08,21,16,52,24.40
2013,08,21,16,53,24.50
2013,08,21,16,54,24.50
2013,08,21,16,55,24.50
2013,08,21,16,56,24.40
2013,08,21,16,57,24.40
2013,08,21,16,58,24.40
2013,08,21,16,59,24.30
2013,08,21,17,00,24.30
2013,08,21,17,01,24.30
2013,08,21,17,02,24.30
2013,08,21,17,03,24.30
2013,08,21,17,04,24.30
2013,08,21,17,05,24.20
2013,08,21,17,06,24.20
2013,08,21,17,07,24.20
2013,08,21,17,08,24.20
2013,08,21,17,09,24.20
2013,08,21,17,10,24.20
2013,08,21,17,11,24.20
2013,08,21,17,12,24.10
2013,08,21,17,13,24.10
2013,08,21,17,14,24.00
2013,08,21,17,15,23.90
2013,08,21,17,16,23.90
2013,08,21,17,17,23.90
2013,08,21,17,18,23.90
2013,08,21,17,19,23.90
2013,08,21,17,20,23.80
2013,08,21,17,21,23.70
2013,08,21,17,22,23.70
2013,08,21,17,23,23.70